Location: C�mpuri de-Sus
(45.9500°N, 22.5500°E)
Time: 04:11:45
(UTC+00:00)

CSL-04 Rocket - Pass Details

Date: 24 October 2021
Orbit: 805 x 860 km, 98.9° (Epoch: 30 November)

Event Time Altitude Azimuth Distance (km) Brightness Sun altitude
Exits shadow 17:14:23 32° 113° (ESE) 1,440 4.4 -19.1°
Maximum altitude 17:16:19 44° 67° (ENE) 1,185 4.0 -19.4°
Drops below altitude 10° 17:21:33 10° 357° (N) 2,509 6.2 -20.3°
Sets 17:24:02 0° 352° (N) 3,448 7.0 -20.7°
